Temperature
29 26 25 26 26 27 27 26 26 27 28 27 25 25 25 25 25 24 24 23 23 22 22 22 22 21 21 21 21 20 20 20 20 19 19 19 19 19 19 19 19 18 18 18
26 26 27 28 28 28 28 27 27 27 28 27 25 25 25 25 24 24 24 23 23 23 22 22 22 21 21 21 21 20 20 20 20 19 19 19 19 19 19 19 19 18 18 18
26 27 29 29 29 28 28 27 27 27 27 26 25 24 24 24 25 25 24 24 24 23 23 22 22 22 21 21 21 21 20 20 20 20 19 19 19 19 19 18 18 18 18 18
27 28 29 29 29 29 28 29 29 28 26 24 24 22 23 23 23 24 24 24 23 23 23 23 22 22 22 21 21 21 20 20 20 20 19 19 19 19 19 19 18 18 18 18
26 28 29 29 30 30 28 29 29 28 25 23 23 22 22 22 23 23 24 24 24 23 23 23 23 22 22 21 21 21 20 20 20 20 19 19 19 19 19 19 18 18 18 18
27 29 29 29 30 30 30 28 26 24 22 23 23 22 22 22 23 23 24 24 24 23 23 23 23 22 22 21 21 21 21 20 20 20 19 19 19 19 19 19 18 18 18 18
27 28 29 30 29 29 28 25 23 24 22 22 23 23 22 23 24 24 24 24 24 23 23 23 22 22 22 22 21 21 21 20 20 20 19 19 19 19 19 19 18 18 18 18
25 26 28 29 29 27 27 25 23 24 23 22 23 22 23 24 24 25 25 25 24 23 23 23 23 22 22 22 21 21 21 21 20 20 20 19 19 19 19 19 19 18 18 18
25 25 28 30 30 28 27 25 23 22 22 22 22 22 23 24 24 24 24 24 24 23 23 23 23 23 22 22 21 21 21 21 20 20 20 19 19 19 19 19 18 18 18 18
25 26 27 29 30 29 27 26 22 22 22 22 22 22 22 23 23 23 23 23 24 24 23 23 23 23 22 22 22 21 21 21 20 20 20 19 19 19 19 19 18 18 18 18
24 24 26 27 28 28 27 26 23 20 21 21 22 22 23 23 23 23 23 23 23 24 23 23 23 22 22 22 22 21 21 21 20 20 20 19 19 19 19 19 18 18 18 18
24 22 23 25 26 28 27 26 23 23 22 21 21 22 24 23 22 22 23 23 23 23 23 23 23 22 22 21 21 21 21 20 20 20 20 19 19 19 19 18 18 18 18 18
24 22 22 24 24 26 26 26 24 21 20 20 21 22 23 22 22 22 22 22 22 23 22 22 22 22 21 21 21 21 21 20 20 20 20 19 19 19 18 18 18 18 18 17
23 21 22 23 23 24 25 26 25 22 21 21 22 22 22 21 21 21 22 22 22 22 22 22 22 21 21 21 21 21 21 20 20 20 19 19 19 19 18 18 18 18 17 17
22 22 23 23 25 25 25 26 26 24 23 22 22 22 22 21 21 21 22 21 21 22 22 21 21 21 21 21 21 20 20 20 20 20 19 19 19 18 18 18 17 17 17 17
20 22 23 23 25 25 25 25 25 25 24 23 23 22 22 22 22 21 21 21 21 21 21 21 21 21 21 21 21 20 20 20 20 20 19 19 19 18 18 18 17 17 17 17
19 20 21 21 23 24 23 24 24 24 23 23 22 21 21 20 21 20 21 21 21 21 21 21 21 21 20 20 20 20 20 20 19 19 19 19 18 18 18 18 17 17 17 16
19 19 18 19 22 22 22 23 24 24 23 22 22 21 21 21 21 21 22 21 21 21 21 21 21 20 20 20 20 20 20 19 19 19 19 19 18 18 18 17 17 17 17 16
19 19 18 18 20 21 22 23 23 23 22 22 21 21 21 21 21 20 21 21 21 21 21 21 21 20 20 20 20 20 20 19 19 19 19 18 18 18 18 17 17 17 16 16
18 18 18 18 20 21 21 23 24 22 20 21 21 20 20 21 19 19 20 21 21 21 20 20 20 20 20 20 19 19 19 19 19 19 18 18 18 18 18 17 17 17 16 16
18 18 18 18 19 20 21 22 23 21 20 21 21 21 20 20 20 20 20 21 21 21 20 20 20 20 20 19 19 19 19 19 18 18 18 18 17 17 17 17 17 17 16 16
17 17 17 17 18 19 20 21 20 20 21 21 21 21 21 21 21 20 20 20 20 20 20 20 20 19 19 19 19 19 18 18 18 18 18 17 17 17 17 17 16 16 16 16
16 16 16 16 17 18 20 21 22 22 21 21 21 21 21 20 20 20 20 20 20 20 19 19 19 19 19 18 18 18 18 18 18 17 17 17 17 17 16 16 16 16 16 16
16 16 15 16 17 18 20 21 21 22 21 21 21 21 21 20 20 19 19 19 19 19 19 19 19 19 18 18 18 18 18 17 17 17 17 17 16 16 16 16 16 15 15 15
16 16 15 15 16 18 19 20 20 21 21 21 20 21 20 20 19 19 19 19 19 19 19 18 18 18 18 18 17 17 17 17 17 17 17 16 16 16 16 16 15 15 15 15
15 15 15 15 16 15 17 19 19 20 20 20 19 19 19 19 19 19 19 19 18 18 18 18 18 18 18 17 17 17 17 16 16 16 16 16 16 15 15 15 15 15 14 14
Wind_Speed
2 2 5 10 10 9 7 6 6 6 5 5 6 7 11 12 11 12 12 11 12 13 11 11 12 11 10 8 8 7 6 5 4 3 2 2 1 1 2 2 4 5 5 5
2 7 12 11 9 8 7 5 4 3 3 4 5 6 8 11 12 14 15 14 13 11 10 11 11 11 10 10 8 7 7 6 5 3 3 2 2 1 2 1 3 5 5 5
9 11 8 7 9 7 7 7 7 6 3 4 5 1 3 6 7 10 12 13 14 15 15 14 13 12 11 10 9 9 7 6 6 4 3 2 2 2 1 1 1 2 4 4
8 10 9 9 10 8 7 8 9 8 5 2 4 3 5 6 7 10 12 12 14 14 14 14 14 12 12 11 9 8 7 6 5 5 4 4 3 2 3 2 2 2 2 3
8 7 8 10 11 6 7 7 6 6 6 3 1 3 5 4 7 12 13 14 13 15 15 14 14 14 12 11 10 9 7 6 5 4 4 4 3 3 2 1 2 2 1 2
10 8 7 9 8 6 4 4 5 5 5 1 3 4 5 6 11 11 12 13 13 14 14 13 13 12 11 10 10 9 8 7 6 6 5 5 5 4 3 2 2 1 1 1
8 9 7 5 4 4 2 5 3 4 4 3 2 3 6 7 8 12 13 13 13 14 14 13 13 13 12 12 11 9 9 7 6 6 6 6 5 5 4 4 3 2 1 1
5 8 7 5 7 6 4 9 8 5 5 3 2 3 6 6 5 7 9 11 12 12 12 13 14 15 14 13 12 11 10 8 7 6 6 5 5 4 3 4 4 3 2 2
7 8 8 7 5 8 4 4 9 8 3 1 2 3 6 2 2 5 7 8 11 13 13 13 14 15 14 14 13 12 11 9 8 7 6 5 5 4 4 3 3 2 2 2
8 5 7 6 1 0 7 7 6 6 5 2 2 3 5 5 5 5 6 8 8 9 11 12 12 13 13 13 12 11 11 10 8 7 6 5 4 5 5 4 3 3 2 1
6 5 5 2 3 5 1 2 4 5 7 7 4 6 7 9 8 8 8 8 9 10 11 10 10 11 11 11 11 10 10 9 8 7 6 5 5 5 5 4 4 3 2 2
4 6 3 6 6 5 5 5 6 5 4 6 5 6 4 8 8 9 8 7 8 9 10 9 10 10 10 10 10 10 9 9 8 7 7 6 5 5 4 4 3 3 3 2
4 6 2 5 7 5 1 1 4 6 5 5 6 5 1 5 5 7 9 9 8 8 7 7 7 8 8 9 9 8 9 9 8 7 7 6 5 5 5 4 3 3 3 2
4 5 7 9 7 3 3 4 1 5 4 4 6 6 2 5 6 6 7 9 10 8 8 8 7 6 7 7 7 6 6 7 7 7 7 7 6 6 5 4 4 3 3 3
5 4 4 5 4 1 1 4 1 2 6 7 8 9 10 10 10 9 8 9 10 9 8 7 6 6 6 7 6 6 6 6 7 8 8 7 6 5 5 4 4 3 3 4
4 3 2 1 1 3 3 4 1 1 2 4 6 5 6 7 7 7 8 10 10 9 8 7 6 6 6 7 7 7 6 7 7 8 8 7 6 5 5 5 4 3 3 3
2 4 3 1 2 4 4 3 1 1 1 6 5 6 7 8 9 9 9 10 9 9 8 8 8 7 6 6 7 8 7 7 7 7 7 7 6 6 6 6 4 4 4 3
5 3 3 2 3 3 7 2 4 5 3 2 5 8 11 10 8 7 9 10 9 9 8 7 6 6 5 5 5 5 6 7 7 7 7 7 7 7 6 5 5 5 4 4
5 6 4 4 3 3 4 2 1 4 2 2 5 9 9 10 8 4 3 7 9 8 8 7 6 6 5 5 5 6 6 5 6 6 7 7 7 7 6 6 6 5 4 4
4 6 6 4 4 4 5 6 1 7 1 4 4 8 9 8 5 4 4 6 7 7 7 6 6 6 6 5 5 6 5 5 5 5 6 6 6 6 7 7 5 4 4 4
4 3 3 4 3 4 5 5 3 3 5 2 3 6 8 5 6 6 6 6 6 6 6 7 7 6 6 5 6 6 4 4 4 3 4 4 4 4 5 5 4 4 4 3
1 1 2 3 3 5 5 2 3 5 3 3 4 6 7 8 8 8 8 7 6 5 5 6 6 5 4 5 7 6 4 4 3 4 3 2 2 2 2 3 3 3 4 4
1 4 4 4 4 4 1 3 3 4 4 3 5 6 9 8 7 7 6 6 5 5 5 4 6 5 3 4 6 6 5 4 4 4 3 3 2 2 2 3 3 2 3 3
3 2 2 1 1 2 4 4 4 5 5 5 6 7 8 7 6 6 6 5 5 4 5 5 5 5 4 3 4 5 4 4 5 4 3 3 3 3 3 3 3 4 4 4
3 2 2 1 1 5 6 6 3 4 6 6 5 5 7 8 6 6 6 6 5 4 3 4 5 5 4 3 3 3 4 5 4 3 3 3 3 3 3 3 3 4 5 6
2 2 3 3 3 2 3 3 2 6 6 6 6 4 4 4 5 4 4 5 5 5 4 4 4 4 4 4 4 3 4 4 5 4 4 3 3 3 3 3 2 3 4 5
Wind_Direction
244 117 224 225 209 201 201 205 218 230 189 150 171 171 173 176 171 170 175 174 171 173 175 169 167 167 160 157 156 157 156 163 146 133 133 130 142 158 163 176 170 164 161 156
336 250 234 229 228 219 215 203 215 217 185 152 146 168 179 181 184 181 181 179 177 171 169 171 171 171 169 168 166 164 165 166 166 165 163 162 159 181 179 181 167 169 165 166
219 242 239 229 240 231 232 203 201 188 153 96 101 37 186 188 189 186 185 181 178 177 176 178 177 177 172 173 173 174 174 170 170 161 132 110 78 63 67 129 183 186 169 170
241 248 252 248 248 220 242 225 195 172 135 164 142 187 249 194 197 195 195 188 184 180 178 179 179 176 177 177 171 166 171 170 168 152 141 149 156 177 204 192 191 203 176 169
240 237 239 245 243 213 222 209 183 168 143 118 67 133 264 191 201 209 202 196 189 183 180 180 178 176 175 172 169 170 167 167 164 157 163 167 176 192 190 164 163 183 194 176
245 250 228 233 247 219 188 81 49 55 83 103 224 158 243 209 207 207 205 195 191 183 178 179 176 171 173 172 170 169 168 170 165 165 173 181 184 175 160 157 163 183 193 186
278 280 265 231 257 304 106 99 35 4 14 248 246 147 238 230 211 200 197 193 189 181 175 175 174 175 177 172 172 172 170 172 172 168 176 184 181 171 168 172 175 172 175 194
227 272 259 231 201 203 195 145 162 193 211 254 326 210 252 244 210 186 184 180 175 173 177 178 179 181 182 177 175 173 175 179 177 173 180 180 170 165 171 175 172 174 184 194
194 243 267 243 212 172 183 188 168 142 145 120 274 286 313 312 168 158 163 165 175 176 176 182 184 182 180 179 179 176 177 179 180 181 180 178 173 163 161 160 156 165 180 179
176 229 278 270 69 313 170 168 105 118 141 172 272 256 229 229 194 172 161 160 170 171 175 177 176 178 180 181 179 174 176 179 179 179 183 183 173 165 158 149 149 155 165 161
156 176 286 324 190 211 177 115 125 130 150 156 198 254 220 203 183 163 161 163 161 161 170 170 167 172 176 175 173 174 175 173 176 181 180 171 162 160 151 154 162 162 156 151
163 143 226 260 256 195 172 183 154 160 198 158 163 253 245 184 169 155 153 147 152 159 167 166 162 160 163 166 169 173 177 179 184 181 169 166 160 158 159 164 168 161 156 153
132 120 117 329 327 358 51 184 152 139 129 148 160 241 290 150 153 152 142 136 135 131 134 139 139 150 159 166 168 170 178 182 181 172 166 164 162 164 174 176 167 156 151 147
111 116 157 189 219 237 296 306 93 119 143 177 192 190 197 162 167 168 150 141 132 126 128 132 137 150 154 158 161 164 174 175 171 169 169 171 177 178 181 174 166 163 158 155
86 128 160 189 208 159 280 296 262 162 177 179 195 180 194 188 178 167 150 139 132 129 132 135 140 146 151 153 159 162 171 172 171 169 172 177 179 178 169 167 169 170 168 171
56 101 88 23 36 51 351 325 276 187 148 148 143 189 197 170 144 142 145 140 141 145 145 148 150 150 154 164 169 166 171 173 167 169 174 173 171 171 171 175 173 176 183 182
61 94 85 258 323 35 316 286 111 96 106 145 166 200 157 138 153 163 156 150 152 151 145 155 160 159 162 169 170 173 174 166 162 169 172 170 170 174 185 188 183 191 199 191
136 109 120 121 80 196 240 266 123 113 65 92 137 142 150 155 157 153 147 143 145 146 147 154 160 158 158 162 165 163 157 158 164 170 175 177 182 186 190 189 195 202 199 195
150 137 119 118 142 254 292 301 213 126 44 15 121 130 130 123 93 74 123 134 143 148 147 150 155 150 145 145 150 145 146 155 165 177 184 187 187 188 192 199 204 201 193 200
61 106 119 126 139 203 257 291 235 105 29 324 113 132 135 121 131 198 178 137 134 136 140 144 138 127 134 145 142 136 151 155 177 189 190 188 187 190 199 204 201 195 195 206
20 43 122 150 174 240 272 296 62 116 222 262 128 141 140 151 173 166 145 130 135 132 133 136 133 138 150 149 138 138 148 174 190 174 169 179 188 196 201 198 193 189 193 192
152 135 181 147 168 236 281 64 130 198 183 140 123 134 130 130 131 133 137 140 134 127 125 132 136 143 153 151 144 151 177 190 158 140 145 163 176 190 193 191 193 188 186 194
159 190 185 180 203 239 260 136 165 145 125 120 123 133 127 121 126 131 135 137 140 142 146 147 144 141 151 161 156 163 188 170 151 149 163 182 186 200 192 190 191 196 202 204
322 5 96 72 341 360 38 59 72 92 102 108 115 127 128 125 129 133 141 143 144 154 154 151 140 145 160 171 169 175 180 168 160 172 188 192 194 208 206 198 192 198 211 215
276 359 50 63 339 14 14 11 30 80 91 94 96 113 133 132 137 145 146 150 150 147 144 147 153 164 172 171 180 184 174 165 173 189 204 208 210 213 215 216 217 215 219 213
268 168 144 214 223 173 281 318 48 92 95 100 95 79 87 123 141 142 149 151 155 153 143 140 151 161 175 180 189 193 181 176 182 198 207 212 222 225 217 213 242 252 240 246
Height
1480 1488 1494 1491 1489 1491 1495 1500 1504 1497 1488 1494 1499 1503 1504 1505 1507 1509 1512 1514 1516 1518 1520 1522 1524 1525 1527 1528 1529 1530 1531 1532 1533 1534 1534 1535 1536 1536 1536 1536 1537 1537 1537 1537
1486 1489 1481 1479 1482 1486 1491 1498 1499 1493 1487 1492 1500 1503 1502 1503 1504 1506 1508 1511 1513 1517 1519 1521 1523 1524 1525 1527 1528 1529 1530 1531 1533 1533 1534 1535 1536 1536 1536 1536 1537 1537 1537 1537
1487 1479 1473 1477 1481 1486 1489 1493 1494 1495 1491 1495 1502 1510 1507 1504 1504 1505 1507 1508 1510 1513 1516 1519 1520 1522 1524 1525 1527 1528 1530 1531 1532 1533 1534 1535 1535 1535 1536 1536 1536 1536 1536 1537
1479 1472 1473 1476 1478 1480 1490 1479 1482 1487 1500 1512 1509 1528 1513 1505 1504 1503 1505 1507 1508 1510 1512 1515 1518 1520 1522 1524 1526 1527 1529 1530 1531 1532 1533 1533 1534 1534 1534 1535 1535 1535 1536 1536
1477 1469 1472 1475 1472 1471 1478 1473 1477 1484 1498 1512 1512 1523 1517 1506 1507 1502 1501 1503 1506 1508 1509 1512 1515 1518 1520 1522 1524 1526 1527 1529 1530 1531 1532 1533 1533 1533 1534 1534 1534 1534 1535 1535
1468 1463 1465 1465 1462 1464 1467 1476 1484 1493 1505 1524 1515 1522 1519 1507 1500 1497 1497 1500 1502 1504 1507 1511 1513 1516 1518 1520 1522 1524 1525 1527 1528 1529 1530 1531 1532 1532 1532 1532 1533 1533 1533 1533
1473 1464 1459 1459 1465 1466 1470 1492 1516 1521 1531 1528 1511 1516 1513 1493 1488 1489 1491 1494 1497 1501 1505 1508 1511 1513 1515 1517 1519 1522 1524 1525 1527 1528 1529 1530 1530 1530 1531 1531 1531 1531 1531 1532
1486 1483 1461 1456 1462 1471 1473 1487 1515 1529 1533 1527 1513 1516 1502 1485 1482 1483 1486 1489 1493 1498 1502 1505 1507 1510 1512 1514 1517 1519 1522 1524 1526 1527 1527 1528 1529 1529 1529 1530 1530 1530 1530 1530
1481 1480 1456 1451 1451 1459 1472 1482 1485 1507 1518 1528 1522 1510 1495 1483 1482 1482 1484 1487 1491 1495 1498 1501 1504 1506 1509 1512 1514 1517 1520 1522 1524 1525 1526 1527 1527 1528 1528 1529 1529 1529 1529 1529
1464 1474 1461 1451 1450 1454 1460 1469 1490 1507 1525 1532 1524 1517 1509 1492 1486 1483 1483 1485 1488 1491 1495 1498 1500 1503 1507 1509 1512 1515 1518 1520 1522 1524 1525 1525 1526 1527 1527 1527 1527 1527 1527 1528
1457 1473 1468 1459 1461 1464 1465 1472 1484 1501 1506 1524 1531 1518 1486 1484 1481 1481 1482 1483 1485 1488 1492 1496 1498 1501 1505 1508 1511 1513 1516 1518 1520 1521 1523 1524 1524 1525 1525 1525 1526 1526 1526 1526
1455 1469 1478 1467 1455 1451 1457 1466 1480 1498 1504 1508 1517 1509 1474 1476 1476 1478 1480 1483 1485 1488 1492 1495 1498 1500 1503 1506 1509 1511 1514 1516 1518 1519 1521 1521 1522 1523 1523 1523 1524 1524 1524 1524
1453 1470 1486 1483 1473 1461 1461 1462 1468 1481 1495 1506 1513 1503 1475 1475 1477 1478 1480 1482 1485 1488 1491 1495 1497 1500 1502 1505 1507 1509 1512 1514 1516 1517 1518 1519 1520 1521 1521 1522 1522 1522 1523 1523
1447 1466 1479 1488 1481 1469 1468 1464 1465 1477 1494 1501 1497 1490 1481 1478 1477 1477 1479 1481 1483 1487 1491 1494 1496 1499 1501 1503 1505 1507 1510 1512 1514 1515 1516 1517 1517 1518 1519 1520 1520 1521 1521 1521
1449 1465 1464 1464 1461 1461 1464 1463 1463 1470 1476 1485 1484 1482 1477 1473 1473 1476 1478 1481 1483 1486 1490 1493 1495 1497 1500 1502 1504 1506 1507 1509 1511 1512 1513 1514 1516 1516 1517 1517 1518 1519 1519 1519
1453 1462 1463 1465 1459 1460 1463 1461 1460 1463 1466 1470 1473 1477 1468 1470 1473 1476 1478 1479 1482 1485 1487 1491 1494 1496 1498 1500 1502 1504 1505 1507 1509 1510 1511 1512 1513 1514 1514 1515 1516 1516 1517 1517
1458 1464 1473 1477 1465 1464 1475 1464 1463 1464 1463 1466 1474 1472 1468 1471 1473 1475 1477 1479 1481 1484 1487 1490 1492 1495 1497 1499 1500 1502 1503 1505 1507 1508 1509 1510 1511 1512 1512 1513 1513 1514 1514 1515
1457 1465 1476 1479 1475 1488 1475 1457 1456 1460 1462 1460 1461 1463 1465 1468 1471 1473 1475 1477 1480 1484 1486 1489 1491 1494 1496 1498 1499 1501 1502 1503 1505 1506 1507 1507 1508 1509 1510 1510 1511 1511 1511 1512
1449 1460 1474 1485 1487 1481 1468 1459 1458 1462 1468 1462 1461 1462 1465 1468 1473 1477 1477 1478 1480 1483 1485 1488 1490 1492 1494 1496 1498 1499 1500 1502 1503 1504 1505 1505 1505 1507 1507 1507 1508 1508 1509 1509
1450 1455 1470 1481 1486 1488 1473 1456 1453 1458 1473 1463 1461 1463 1466 1468 1477 1478 1477 1478 1480 1482 1484 1486 1488 1490 1493 1495 1496 1497 1498 1499 1500 1502 1502 1503 1504 1504 1504 1505 1505 1506 1506 1507
1464 1467 1472 1479 1483 1477 1462 1454 1454 1474 1475 1464 1462 1462 1464 1466 1470 1473 1475 1477 1479 1481 1483 1485 1487 1488 1490 1493 1494 1495 1496 1497 1498 1499 1500 1501 1501 1501 1502 1502 1502 1503 1503 1504
1471 1475 1476 1479 1484 1481 1459 1456 1461 1465 1460 1461 1461 1462 1463 1465 1468 1471 1474 1476 1478 1480 1482 1484 1485 1487 1489 1490 1492 1493 1494 1495 1495 1496 1497 1498 1498 1499 1499 1499 1499 1500 1500 1500
1468 1469 1470 1472 1474 1463 1458 1457 1458 1458 1459 1460 1461 1464 1465 1466 1468 1470 1473 1475 1477 1479 1481 1482 1484 1485 1487 1489 1489 1490 1491 1493 1493 1494 1494 1495 1495 1495 1496 1496 1495 1496 1497 1496
1465 1462 1465 1467 1465 1461 1459 1458 1458 1459 1460 1461 1462 1464 1465 1466 1468 1470 1472 1475 1477 1478 1480 1481 1482 1484 1485 1486 1488 1488 1489 1490 1491 1491 1491 1492 1492 1492 1492 1493 1492 1492 1492 1492
1466 1464 1466 1468 1465 1461 1461 1461 1460 1460 1461 1462 1463 1464 1465 1466 1468 1470 1471 1473 1475 1477 1479 1480 1481 1482 1483 1484 1485 1487 1487 1488 1488 1489 1489 1489 1489 1490 1490 1489 1489 1489 1489 1489
1464 1465 1468 1470 1465 1465 1465 1463 1462 1460 1461 1462 1463 1465 1466 1467 1467 1469 1470 1471 1474 1476 1477 1479 1480 1481 1481 1482 1483 1484 1485 1485 1486 1486 1486 1486 1486 1486 1485 1485 1486 1486 1486 1486